Regional Weather Roundup
Issued by NWS Kansas City/Pleasant Hill, MO

Home | Current Version | Previous Version | Graphics & Text | Print | Product List | Glossary Off
Versions: 1 2 3 4 5 6 7 8 9 10 11 12 13 14 15 16 17 18 19 20 21 22 23 24 25 26 27 28 29 30 31 32 33 34 35 36 37 38 39 40 41 42 43 44 45 46 47 48 49 50

000
ASUS43 KEAX 250410
RWREAX

WEATHER ROUNDUP FOR EASTERN KANSAS AND NORTHWEST MISSOURI
NATIONAL WEATHER SERVICE KANSAS CITY/PLEASANT HILL MO
1100 PM CDT THU JUL 24 2014

KSZ040-057-103>105-MOZ028-029-037-043-250500-
...KANSAS CITY METROPOLITAN AREA...

CITY           SKY/WX    TMP DP  RH WIND       PRES   REMARKS
K.C. INTL      CLEAR     71  59  65 S12       29.98F
K.C. DOWNTOWN  CLEAR     77  59  53 S6        29.98F
LEES SUMMIT    CLEAR     72  60  66 S8        29.99F
OLATHE - IXD   CLEAR     72  60  66 SE7       30.02F
OLATHE - OJC   CLEAR     72  59  63 SE7       30.02S
LAWRENCE       CLEAR     69  61  75 SE7       30.00F

$$

MOZ001>008-011>017-020>025-030>033-038>040-044>046-053-054-250500-
...NORTHERN AND CENTRAL MISSOURI...

CITY           SKY/WX    TMP DP  RH WIND       PRES   REMARKS
ST. JOSEPH     CLEAR     71  62  73 SE8       29.97F
MOSBY          CLEAR     70  61  73 E5        30.00F
WHITEMAN AFB   CLEAR     68  49  51 S5        30.01F
CLINTON        CLEAR     72  61  68 CALM      30.04S
SEDALIA        CLEAR     68  58  70 SE5       30.03F
WARSAW         NOT AVBL
MARSHALL       CLEAR     70  63  78 SE5       30.02F
CHILLICOTHE      N/A     70  59  68 VRB3      30.00F
MOBERLY        PTCLDY    66  57  72 SE9       30.02F
KIRKSVILLE     MOCLDY    66  58  75 S9        29.99F

$$

MOZ041-047>049-056>058-063>065-088>090-097-250500-
...EASTERN AND SOUTHERN MISSOURI...

CITY           SKY/WX    TMP DP  RH WIND       PRES   REMARKS
ST. LOUIS INTL CLEAR     71  55  56 NE5       30.06F
SPIRIT OF STL  CLEAR     61  56  83 CALM      30.04F
COLUMBIA       CLEAR     65  57  75 SE7       30.03F
JEFFERSON CITY CLEAR     66  57  72 E5        30.03F
MEXICO         CLEAR     63  61  94 SE3       30.03F
HANNIBAL       MOCLDY    68  54  60 SE5       30.02S
ROLLA          CLEAR     65  53  65 E9        30.04F
LEBANON        CLEAR     66  55  68 CALM      30.08S
OSAGE BEACH    CLEAR     70  55  60 SE5       30.03F
SPRINGFIELD    CLEAR     70  59  68 SE7       30.05S
BRANSON        CLEAR     70  59  68 SE5       30.09R
NEVADA         CLEAR     70  59  68 E5        30.03F
JOPLIN         CLEAR     75  64  68 SE6       30.03S
WEST PLAINS    PTCLDY    67  58  72 SE5       30.07F

$$

IAZ060-094-KSZ022-034>040-054-083-096-NEZ052-066-093-250500-
...KANSAS...SOUTHEAST NEBRASKA AND IOWA...

CITY           SKY/WX    TMP DP  RH WIND       PRES   REMARKS
TOPEKA         CLEAR     76  61  59 E9        29.99S
MANHATTAN      MOCLDY    78  67  68 E6        29.93F
EMPORIA        CLEAR     75  67  76 SE9       29.98S
CHANUTE        CLEAR     74  66  76 SE7       30.00F
WICHITA        PTCLDY    81  70  69 SE14      29.97R
OMAHA          PTCLDY    75  59  57 S21G31    29.87F
LINCOLN        PTCLDY    78  60  53 S22G29    29.88F
FALLS CITY     CLEAR     74  61  63 SE13      29.93F
LAMONI         PTCLDY    69  60  73 S13       29.96F
DES MOINES     PTCLDY    72  59  63 S10       29.91R

$$



USA.gov is the U.S. government's official web portal to all federal, state and local government web resources and services.